Regional Weather Roundup
Issued by NWS Newport/Morehead, NC

Home | Current Version | Previous Version | Text Only | Print | Product List | Glossary On
Versions: 1 2 3 4 5 6 7 8 9 10 11 12 13 14 15 16 17 18 19 20 21 22 23 24 25 26 27 28 29 30 31 32 33 34 35 36 37 38 39 40 41 42 43 44 45 46 47 48 49 50
000
ASUS42 KMHX 170025
RWRMHX
WEATHER ROUNDUP FOR EASTERN NORTH CAROLINA
NATIONAL WEATHER SERVICE NEWPORT/MOREHEAD CITY NC
800 PM EDT MON OCT 16 2017

NOTE: "FAIR" INDICATES FEW OR NO CLOUDS BELOW 12,000 FEET
WITH NO SIGNIFICANT WEATHER AND/OR OBSTRUCTIONS TO VISIBILITY

NCZ015>017-031-032-045>047-102-103-170100-
NORTH COAST

CITY           SKY/WX    TMP DP  RH WIND       PRES   REMARKS
EDENTON        CLOUDY    59  56  89 CALM      30.15R
ELIZABETH CITY CLOUDY    60  52  74 N13       30.12R
KITTY HAWK     CLOUDY    62  52  69 N14G22    30.09R
MANTEO         CLOUDY   N/A N/A N/A NE23G29   30.11R

$$

NCZ045>047-081-094-103-104-170100-
CENTRAL COAST

CITY           SKY/WX    TMP DP  RH WIND       PRES   REMARKS
FRISCO         HVY RAIN  63  61  93 NE14G24   30.06R FOG

$$

NCZ095-097-098-100-101-170100-
SOUTHERN COAST

CITY           SKY/WX    TMP DP  RH WIND       PRES   REMARKS
BEAUFORT       CLOUDY    60  55  83 N18G26    30.07R
CEDAR ISLAND   NOT AVBL
JACKSONVILLE   CLOUDY    59  56  89 N17G23    30.10R
PINEY ISLAND     N/A    N/A N/A N/A N22G32    30.08R
WILMINGTON     CLOUDY    60  53  77 N15       30.10R


$$

NCZ011>013-027>030-043-044-078>080-089-090>093-098-170100-
COASTAL PLAIN

CITY           SKY/WX    TMP DP  RH WIND       PRES   REMARKS
AHOSKIE        CLOUDY    55  47  74 N5        30.16R
CLINTON        CLOUDY    59  57  92 N3        30.14R
ELIZABETHTOWN  NOT AVBL
GOLDSBORO      CLOUDY    59  55  87 N7        30.13R
GREENVILLE     CLOUDY    57  55  94 N5        30.15R
HAVELOCK       CLOUDY    60  58  92 N17G25    30.11R
KENANSVILLE    NOT AVBL
KINSTON        CLOUDY    59  54  82 N8        30.14R
NEW BERN       CLOUDY    59  53  80 NE20G33   30.12R
RICHLANDS      CLOUDY    58  52  80 N9        30.12R
ROCKY MOUNT    PTCLDY    55  55 100 N6        30.15R
WASHINGTON     CLOUDY    58  55  89 N5        30.14R
WHITEVILLE     CLOUDY    59  54  83 N5        30.12R

$$

AMZ130-135-150-152-154-156-158-170-250-252-270-ANZ085-086-088-633-658-670-170100-
MARINE OBSERVATIONS

STATION/POSITION TIME  TEMP    WIND        PRES    WAVE   SWELL
                       AIR SEA DIR/SP/G            HT/PER HT/PER
                 (UTC) (F)     (DEG/KT/KT) (MB)    (FT/S) (FT/S)
CHESAPEAKE LIGHT NOT AVBL
64 E VA BEACH    2350   63 69  360/ 23/ 27 1018.1    7/ 6
DUCK             0000   64 71   20/ 24/ 28 1018.8
2 E DUCK         0000      72                N/A     7/ 6   2/12
OREGON INLET     0000   63 74  350/ 16/ 22 1018.6
13E OREGON INLT  2348      73                N/A     8/ 7   2/13
HATTERAS CG      0000   66 76   10/ 25/ 29 1017.8
DIAMOND BUOY     2350   68 81   10/ 25/ 31 1016.1    7/ 6   2/11
CAPE LOOKOUT     0000   62     360/ 26/ 32 1017.6
BEAUFORT LAB     0000   62 76  360/ 19/ 25 1018.8
30 SE NEW RVR IN 0008   65      20/ 25/ 35 1017.4
30 SE NEW RVR IN NOT AVBL
27 SE WRIGHTSVLE 0008   65 78   40/ 19/ 29 1017.2
5 SE WRIGHTSVLE  0008   63 77   30/ 19/ 35 1018.8
225 S CAPE HAT   2350   78 80  300/  4/  6 1014.0    4/10   3/10
41 SE CHARLESTON 0010   71 81   10/ 25/ 33 1015.5

$$




USA.gov is the U.S. government's official web portal to all federal, state and local government web resources and services.